RH
64 64 66 66 67 68 70 71 72 73 73 74 75 76 77 78 79 80 81 81 83 85 88 91 92 92 90 85 80 76 73 69 64 57 48 37 29 24 21 20 25 34 48 53 56 59 64 70 73 75 75 75 76 76 77 78 78 78 79 80 80 79 80 82 84 86 88 87 85 83 80 81 80 80 83 83 84 84 85 86 85 84 84 85 86 87
64 65 66 67 68 69 70 71 72 73 74 75 77 78 80 80 81 83 84 85 87 89 91 91 90 87 83 78 74 69 63 57 51 44 37 30 26 24 23 24 28 37 52 55 59 65 72 75 77 76 76 76 76 75 74 76 78 78 79 80 80 80 82 84 85 85 86 85 84 83 82 84 83 82 84 85 86 87 88 88 87 87 88 88 88 87
67 67 67 68 69 70 71 72 73 75 76 78 79 81 82 84 84 86 87 89 90 90 89 88 86 82 76 71 64 56 48 41 36 33 30 27 26 26 27 30 36 43 54 60 67 73 77 77 77 76 75 76 76 75 72 74 76 78 79 80 81 82 83 84 83 82 82 82 82 84 87 88 87 85 86 87 88 88 88 88 88 89 90 90 89 87
72 72 72 72 73 75 77 79 80 81 81 82 82 83 85 86 87 89 90 91 91 90 89 87 83 76 69 60 50 40 31 28 28 30 31 30 30 31 34 39 47 56 63 69 73 75 75 75 74 74 75 78 79 76 71 72 75 78 79 80 81 82 82 81 81 80 80 82 84 87 89 90 90 89 88 89 90 90 90 89 90 90 92 91 91 90
77 77 78 78 80 82 84 86 88 88 88 87 86 87 88 89 90 91 93 93 93 91 88 82 73 63 52 42 32 26 22 25 30 35 37 35 35 37 42 49 56 63 68 70 72 72 71 71 72 73 75 77 76 74 71 72 75 79 79 80 80 79 78 78 79 81 84 87 89 90 90 91 90 89 90 91 91 91 91 90 90 92 94 93 92 92
79 80 81 82 84 86 86 88 89 90 90 89 89 90 90 92 93 94 94 91 85 77 69 60 51 43 35 28 24 22 24 32 39 43 42 40 41 44 48 51 55 59 61 63 63 63 62 64 68 71 73 73 71 70 73 75 78 80 79 79 79 78 79 79 81 85 89 91 91 91 91 90 90 91 92 92 92 91 91 91 92 94 94 94 94 94
78 80 81 83 85 86 86 87 87 89 90 91 92 93 93 93 91 88 83 75 65 56 49 44 40 35 30 26 25 25 29 36 41 43 42 41 41 42 42 41 43 46 49 51 53 55 56 59 64 68 71 72 72 73 75 78 79 80 79 79 79 80 83 85 88 91 92 92 91 91 91 91 92 92 93 94 94 94 93 94 94 94 95 94 94 94
80 80 81 82 84 85 86 87 89 91 93 94 94 93 90 86 82 76 69 62 55 49 46 44 39 34 30 27 27 29 32 36 38 39 39 37 35 32 31 31 36 43 47 50 53 56 59 61 64 67 68 70 72 74 75 77 77 77 77 78 80 83 86 89 92 93 92 91 91 91 92 92 93 94 94 95 96 96 96 96 96 95 95 94 95 95
83 82 81 83 84 86 89 91 93 95 96 96 94 89 82 77 72 67 64 61 57 53 48 44 40 35 30 29 30 32 34 36 38 39 38 35 31 28 27 31 38 45 50 55 59 61 61 61 62 63 65 67 69 71 72 73 73 73 75 78 81 85 89 91 93 93 91 92 92 92 93 94 95 95 95 96 97 97 96 97 97 96 96 95 95 95
87 85 84 86 88 90 93 95 96 96 96 96 94 89 81 74 69 65 63 60 56 53 48 45 41 37 33 31 31 33 36 37 38 37 36 33 30 28 28 31 35 42 49 55 57 57 55 54 55 58 61 64 65 67 68 69 70 71 74 79 83 87 90 93 94 93 92 93 93 94 95 95 96 96 96 96 96 96 96 96 96 96 95 94 94 94
90 90 89 91 92 94 95 95 95 94 93 94 95 93 89 82 74 68 63 56 50 47 44 43 39 36 33 31 32 34 37 38 38 37 35 32 30 28 28 30 33 38 44 47 47 45 42 44 48 54 58 61 63 64 65 66 68 71 75 81 85 88 92 93 94 94 94 94 95 95 95 95 95 95 95 95 96 96 95 95 94 94 95 94 94 94
92 92 92 94 95 95 95 94 92 92 93 92 87 81 77 76 71 65 59 50 43 38 36 35 33 31 30 32 34 37 39 40 40 39 37 33 31 30 30 30 31 34 37 38 38 38 37 41 45 48 52 54 58 61 63 64 68 73 78 82 86 89 92 93 93 94 95 95 95 95 95 95 95 95 94 95 95 95 94 93 93 93 94 94 94 94
94 93 94 96 96 96 95 92 91 91 91 85 77 70 67 64 60 57 51 43 38 37 39 39 34 29 28 33 38 41 43 44 43 42 38 34 32 31 31 31 32 34 37 38 39 39 39 41 43 45 47 49 53 58 61 65 70 75 80 83 87 89 92 93 94 94 95 95 95 95 95 95 94 94 93 95 95 95 94 93 93 92 93 93 93 93
96 96 97 98 98 97 95 93 91 89 82 74 68 64 60 58 55 50 41 38 39 43 48 44 37 31 32 37 41 44 45 45 43 41 37 33 32 32 33 33 34 35 38 40 40 40 40 41 43 44 46 48 50 54 60 67 72 77 81 84 86 89 91 93 94 95 96 95 95 95 95 94 93 93 92 93 94 94 94 94 94 93 92 93 92 91
98 98 98 99 99 98 96 93 88 81 74 69 64 61 60 57 53 47 41 45 46 45 43 37 33 33 37 41 43 45 45 42 40 38 36 32 31 32 34 35 36 37 39 41 41 41 42 43 44 45 47 48 52 57 64 69 73 77 80 83 85 88 91 93 94 94 94 93 94 94 94 93 92 92 94 94 95 95 95 95 95 94 93 92 91 90
99 99 99 99 98 96 94 88 81 74 71 67 63 60 57 51 46 44 43 46 44 40 38 40 40 40 42 45 46 44 41 38 37 36 35 30 31 33 36 37 38 39 40 42 42 43 43 44 45 47 48 50 56 63 69 71 73 76 80 82 84 87 91 92 93 93 93 93 93 93 93 92 93 94 94 94 95 95 95 95 95 94 93 90 89 89
99 99 98 96 92 88 84 79 75 72 71 66 62 57 48 41 39 40 42 40 39 40 45 50 52 51 47 42 42 42 38 36 35 34 33 31 32 35 38 39 40 41 42 43 43 44 44 45 46 47 48 53 60 66 70 72 73 76 80 81 83 86 90 91 91 91 92 93 93 93 92 92 94 95 95 95 95 94 94 94 94 93 91 89 88 89
99 97 94 89 84 79 76 74 74 73 70 64 57 50 41 35 34 36 37 37 40 45 52 53 54 54 51 44 40 38 36 35 34 34 34 33 35 37 39 41 42 43 43 44 44 44 45 46 47 48 50 57 63 68 71 73 75 77 80 82 84 87 91 90 90 91 92 92 92 92 92 93 94 94 94 93 92 92 93 93 92 90 89 89 90 92
97 93 89 84 79 76 74 74 73 69 62 54 46 38 32 35 37 38 38 42 46 50 53 54 54 53 49 46 40 36 33 33 35 36 37 37 38 39 41 42 43 44 44 45 45 46 47 48 49 51 53 59 65 69 72 74 76 78 80 82 85 89 91 90 90 91 92 91 91 91 91 91 92 92 92 89 89 90 91 90 89 90 93 95 96 96
93 88 84 80 77 75 75 73 67 58 48 40 33 30 34 40 43 44 46 53 56 57 55 54 53 51 46 41 36 33 32 34 37 39 40 40 41 41 42 44 45 46 47 48 49 50 51 52 54 56 58 62 67 71 73 74 77 79 81 83 86 89 90 90 91 91 92 92 92 91 90 90 90 90 90 89 89 89 89 89 91 93 95 97 97 97
88 84 81 81 80 77 73 66 57 47 37 31 28 30 35 43 49 55 61 63 61 57 52 48 45 40 34 32 31 32 36 38 41 44 44 44 43 43 44 46 48 49 51 52 53 54 55 57 59 60 60 64 68 71 73 75 77 79 81 82 85 86 87 88 89 90 92 92 91 89 89 89 89 88 88 88 88 88 89 91 93 95 97 97 96 94
86 82 81 81 79 73 65 54 44 37 31 29 29 32 38 47 54 59 60 57 50 43 36 32 29 28 30 32 35 38 40 42 45 48 49 48 46 44 46 49 51 54 56 56 58 59 60 61 62 62 61 65 68 71 73 76 77 79 80 81 82 84 84 86 87 89 91 91 91 89 89 88 88 88 88 88 88 89 91 94 95 96 97 96 93 88
88 85 81 73 65 56 45 36 31 30 30 30 30 31 33 39 42 43 44 40 35 31 29 28 28 30 34 36 38 41 44 45 47 49 50 51 48 46 48 53 56 58 60 61 62 63 63 64 64 63 62 65 69 73 75 77 78 78 79 80 80 81 83 85 86 87 88 89 90 90 89 89 89 89 89 88 89 90 92 94 96 96 95 92 88 84
85 78 67 54 45 37 29 26 25 26 27 27 26 26 27 31 32 33 34 31 28 26 25 27 30 34 36 38 40 43 47 49 50 50 49 48 48 49 52 57 61 63 64 64 65 65 65 65 65 65 63 67 70 74 76 77 78 78 79 79 79 80 81 83 85 86 87 88 89 89 89 89 89 89 89 89 90 91 92 95 96 96 93 88 85 84
66 56 43 34 28 25 23 22 23 23 24 24 26 29 34 35 35 33 31 27 25 24 26 30 34 37 38 39 41 44 48 51 52 51 50 49 51 53 57 62 65 67 68 68 68 67 67 68 67 66 65 67 69 72 75 76 77 77 78 78 78 79 80 82 83 85 86 87 87 87 87 87 88 89 89 89 90 91 92 95 96 95 90 87 85 83
40 33 26 25 24 23 22 23 24 25 27 31 38 43 44 40 37 34 31 28 26 26 29 36 40 42 41 41 41 43 48 51 52 52 53 55 57 60 63 67 70 71 71 71 70 69 69 70 69 67 66 67 67 68 72 75 76 77 77 77 78 78 79 81 83 84 85 86 87 87 88 86 87 88 89 89 89 90 92 95 95 94 90 85 81 81
31 30 30 31 30 29 29 31 34 38 42 46 48 46 41 35 30 28 31 28 26 26 29 41 48 50 47 45 44 45 47 52 54 56 57 60 63 66 69 72 73 74 74 73 72 71 71 72 70 68 68 68 67 67 70 74 75 76 76 76 77 78 80 81 82 83 84 85 85 86 87 86 87 88 88 88 88 89 92 94 95 93 87 79 74 75
50 52 52 52 49 48 51 56 59 61 60 56 48 40 32 26 23 24 28 25 25 27 32 45 53 56 53 49 48 49 50 56 60 62 62 65 68 71 74 75 76 77 78 76 74 72 72 72 71 70 70 69 68 68 70 72 73 73 74 75 76 78 79 81 81 82 83 83 84 84 85 85 86 87 87 88 88 89 92 94 94 90 81 75 74 76
71 70 70 70 69 69 71 76 77 75 69 56 42 30 23 20 20 20 20 22 24 28 36 46 52 55 55 53 53 55 58 64 68 68 67 69 72 75 77 78 79 80 81 80 77 75 73 73 72 72 72 71 69 69 70 70 70 71 72 73 75 77 79 80 81 81 81 82 82 82 83 83 85 86 86 87 88 89 92 94 94 89 80 75 74 75
69 69 70 70 72 74 76 77 75 70 60 43 30 21 20 20 20 20 21 23 26 30 38 48 54 56 57 58 60 63 69 74 77 77 74 73 76 79 80 81 81 81 82 83 82 81 77 74 73 73 74 73 71 70 70 70 71 71 71 71 73 76 78 79 80 80 80 80 81 81 82 82 83 85 86 87 88 89 91 93 94 91 85 79 75 73
67 67 68 71 73 74 73 68 61 51 38 26 21 20 21 21 21 22 24 27 30 34 40 49 55 58 59 61 65 71 77 82 84 83 77 77 79 81 83 83 83 82 83 83 84 84 81 78 75 74 75 74 73 71 70 71 71 72 72 72 73 75 77 78 78 78 78 79 80 81 81 81 82 84 86 88 89 89 90 91 92 93 90 84 79 75
65 66 70 74 76 74 68 57 44 32 23 21 21 22 21 21 23 26 30 34 37 41 47 53 57 60 61 62 67 73 78 83 85 83 78 79 81 84 85 85 84 84 83 83 83 83 84 81 78 76 76 75 73 72 71 72 73 73 73 73 73 74 75 76 76 76 76 77 78 79 80 80 81 83 86 88 89 89 90 89 91 92 93 90 86 82
67 72 77 79 76 68 56 42 31 24 22 22 22 22 22 25 29 34 39 44 48 51 54 57 60 63 64 64 66 70 75 80 82 81 78 79 82 85 87 87 86 85 84 83 82 81 82 80 78 77 77 76 74 73 72 73 74 74 74 75 74 74 74 74 74 74 75 75 76 78 79 80 81 82 85 88 89 89 89 89 89 90 92 93 93 91
77 81 83 77 66 53 38 29 25 23 23 23 23 24 28 33 39 44 49 53 57 59 61 62 64 65 68 68 68 70 75 78 80 81 78 79 82 86 89 88 87 86 85 84 83 81 80 80 80 79 78 76 74 73 73 75 75 75 76 76 75 75 74 74 75 75 75 75 76 77 78 79 80 82 84 87 89 89 89 89 89 89 90 93 94 95
84 83 76 63 51 40 31 27 24 23 23 24 27 31 37 43 49 54 58 61 64 66 68 68 69 70 72 72 72 73 75 76 78 79 77 79 82 87 90 88 87 87 87 86 85 83 82 82 81 81 79 77 75 74 75 76 76 76 77 77 76 75 75 76 76 76 76 76 77 78 78 80 81 82 83 86 88 88 88 89 89 90 89 91 93 95
81 72 60 50 43 38 32 26 25 25 25 29 34 41 48 53 57 61 63 65 68 70 72 73 74 75 75 76 76 76 76 77 77 77 77 79 83 88 91 89 89 88 89 87 87 86 85 84 82 81 80 78 77 76 77 77 77 77 78 77 77 76 76 77 78 77 77 77 77 78 79 81 82 82 83 86 87 87 87 89 90 90 89 89 90 92
68 59 52 47 42 37 29 26 27 28 31 36 42 49 56 59 62 64 66 68 70 72 74 76 76 76 76 76 76 76 76 76 77 78 79 81 85 88 89 89 89 89 88 88 88 88 87 86 84 82 81 79 79 79 79 79 79 79 79 78 77 77 77 78 78 78 77 77 78 79 81 83 83 83 83 85 85 84 84 87 89 89 87 86 87 89
63 57 52 46 39 32 28 28 29 33 37 44 51 56 61 62 64 66 68 70 73 75 77 77 77 77 76 76 76 76 77 78 79 81 82 84 85 86 86 86 87 87 87 87 88 89 90 88 86 84 82 81 81 81 81 81 81 81 81 79 78 77 77 78 78 78 77 78 79 81 83 85 84 83 83 83 83 82 82 85 87 87 84 81 82 84
66 61 54 44 35 30 29 30 33 38 46 53 58 61 63 64 66 69 71 73 75 77 77 77 77 77 76 77 78 78 79 81 82 83 84 85 85 86 86 86 86 86 86 87 88 88 89 88 87 87 86 84 83 82 81 81 82 83 83 81 79 77 77 78 78 78 78 79 81 83 84 87 86 85 84 84 83 82 82 84 86 87 85 84 82 81
68 60 50 39 34 31 31 33 39 47 55 59 62 64 65 67 70 73 75 77 78 78 78 77 77 77 77 78 79 80 81 82 83 84 84 85 86 87 88 88 89 89 88 88 88 88 88 88 88 88 88 87 86 85 83 83 83 84 86 84 81 80 78 78 78 77 78 80 83 85 87 89 88 86 84 84 83 82 82 84 86 88 87 87 87 86
63 53 42 34 32 33 34 40 48 56 61 62 64 66 69 73 75 78 79 81 81 81 81 79 79 79 80 80 81 81 82 83 83 84 85 86 87 89 89 90 90 90 91 90 89 88 88 89 89 88 88 88 87 86 85 84 84 85 87 86 84 82 80 78 77 78 80 82 84 87 89 90 88 85 83 83 82 81 81 83 86 88 87 88 89 90
51 40 33 32 33 38 43 51 57 60 62 63 67 72 76 78 79 81 83 83 83 82 81 80 80 80 80 81 81 82 82 83 83 84 85 87 88 89 90 91 91 92 92 92 91 90 89 89 89 89 89 89 88 88 86 84 84 84 85 86 86 84 81 78 78 79 82 84 86 89 90 90 86 82 81 81 81 81 82 83 85 88 88 89 90 90
39 32 30 34 39 46 53 58 60 62 63 67 72 76 79 80 80 81 82 82 81 81 80 80 80 79 79 80 81 81 82 82 83 84 85 87 89 90 91 91 91 92 92 93 92 91 90 90 90 90 89 89 89 89 89 86 85 84 83 84 85 85 84 81 80 82 84 86 88 90 91 89 85 81 79 79 80 81 83 84 85 86 88 89 91 92
31 31 35 42 49 54 59 61 63 65 68 72 76 79 81 82 82 82 82 81 81 80 81 81 81 80 79 80 81 81 81 82 82 83 84 87 89 90 91 90 90 90 91 93 93 93 93 92 90 89 88 89 89 89 89 87 86 84 82 83 84 85 84 83 84 85 87 89 90 91 92 88 83 80 78 78 80 83 85 84 85 86 88 89 91 92
31 37 45 51 56 59 61 64 66 69 72 76 78 81 83 83 83 82 81 81 81 81 81 81 81 80 80 81 82 82 82 81 81 81 83 85 87 87 88 88 89 89 90 91 92 93 93 92 90 88 88 89 89 89 88 87 85 84 82 83 84 84 85 85 86 88 90 91 92 92 92 87 83 80 79 79 81 84 87 86 86 87 89 90 91 92
38 46 53 57 59 62 65 67 70 73 77 79 81 82 83 83 83 82 81 81 82 82 82 81 80 80 81 81 82 82 82 82 81 81 82 82 83 83 84 85 86 87 88 88 89 90 90 89 88 88 88 88 87 86 84 83 83 83 83 84 85 86 87 88 89 90 92 92 92 92 91 87 84 81 82 81 82 85 88 89 89 89 90 92 93 94
45 52 57 60 62 65 69 71 74 77 80 81 81 82 83 83 82 82 82 82 83 82 82 81 81 81 81 81 81 81 81 82 82 82 81 82 82 82 83 84 85 86 87 86 86 85 84 83 83 84 85 86 85 82 79 79 81 83 84 86 88 89 90 90 90 91 92 92 92 91 90 89 87 85 84 82 82 84 88 90 90 90 91 93 93 93
49 54 58 61 65 68 72 75 78 79 80 81 81 82 83 83 82 82 83 83 83 83 81 81 81 81 82 81 81 82 82 82 82 82 82 83 82 82 83 84 85 85 84 83 81 80 79 77 77 77 78 81 81 81 78 78 80 82 85 87 90 92 93 92 91 91 91 90 91 91 91 90 90 89 87 83 82 83 87 91 92 91 91 93 93 92
51 55 59 63 67 71 74 77 79 80 80 81 81 82 83 84 84 84 84 84 84 83 83 82 81 81 81 81 82 82 82 83 83 83 83 83 83 83 84 85 85 85 83 80 78 76 74 73 72 72 73 75 77 78 77 79 81 84 86 89 91 93 93 92 92 91 90 90 90 90 90 90 90 90 89 84 82 82 85 89 91 90 89 91 93 94
54 57 61 65 68 72 75 78 79 80 80 81 82 83 84 85 86 86 85 84 83 83 82 82 81 81 81 81 82 82 83 83 83 83 83 84 85 86 86 87 86 85 83 80 77 75 73 72 72 73 75 77 78 79 80 82 85 87 89 91 92 93 93 93 92 92 91 90 90 90 90 90 90 90 90 86 82 81 82 87 89 89 86 87 91 95
56 59 63 66 69 72 76 78 79 80 81 81 82 83 84 85 86 86 85 83 82 81 81 81 81 82 82 82 82 83 84 83 83 83 83 84 86 86 87 87 88 87 86 83 81 79 77 76 76 76 77 82 84 85 86 88 90 91 92 92 93 93 94 94 93 92 92 91 90 91 91 91 90 90 90 88 85 82 81 87 88 87 85 85 89 93
Wind_Speed
16 17 17 18 18 17 16 16 15 14 14 15 15 15 15 16 16 16 16 16 16 17 16 16 14 13 11 10 10 11 12 13 14 15 17 18 18 18 16 15 14 14 14 14 15 16 16 17 17 18 18 18 18 18 18 18 18 18 18 18 18 18 18 18 18 19 19 19 20 20 20 20 20 20 20 20 20 20 20 20 20 21 21 21 21 22
16 16 16 16 16 17 17 16 15 14 13 14 14 15 15 15 15 15 15 15 15 14 14 12 11 10 10 10 11 12 13 13 14 15 16 16 16 15 14 13 13 13 13 14 15 15 16 17 17 18 18 18 18 18 17 17 17 17 17 18 18 18 18 18 19 19 19 19 20 20 20 20 20 19 19 19 19 20 20 20 20 21 21 21 22 22
15 15 15 15 15 15 15 15 15 14 13 13 14 15 15 15 15 14 13 12 12 11 10 10 9 10 11 12 12 13 13 14 14 14 15 15 14 14 13 12 12 13 13 14 15 15 16 16 17 17 18 17 17 17 17 17 17 17 17 17 18 18 18 18 19 19 19 19 19 19 19 19 19 19 19 19 19 20 20 20 21 21 21 22 22 22
15 15 15 14 14 13 13 13 14 14 14 14 15 15 15 14 13 12 11 10 10 9 9 9 9 10 11 12 12 12 13 12 13 13 13 14 13 13 13 13 13 13 14 14 14 15 15 16 16 17 17 16 16 16 16 16 16 17 17 17 17 18 18 18 19 19 19 19 19 19 18 18 19 19 19 19 20 20 20 21 21 21 21 22 22 22
13 14 14 13 13 12 12 13 14 14 14 15 15 15 14 13 12 11 10 9 8 8 8 8 9 9 10 10 11 11 11 11 11 12 12 13 13 13 13 13 13 14 14 14 14 14 15 15 15 16 16 15 15 15 15 15 16 16 16 17 17 18 18 18 18 18 18 18 18 18 18 19 19 19 19 20 20 21 21 21 21 22 22 22 22 23
12 12 12 12 12 12 12 13 13 14 13 14 14 14 13 12 11 9 8 7 6 6 7 7 8 8 9 9 10 10 10 10 10 11 12 12 12 12 13 13 13 13 14 14 14 14 14 15 15 15 15 15 15 15 15 15 15 16 16 17 17 18 18 18 18 18 18 18 18 18 18 19 19 19 20 20 21 21 21 22 22 22 22 22 22 23
11 13 13 12 13 13 13 12 12 12 11 11 11 10 9 8 7 5 4 4 4 5 6 7 7 8 8 9 10 10 10 9 10 10 11 11 12 12 13 13 13 13 13 13 13 13 14 14 14 15 15 14 14 14 14 15 15 15 16 17 17 17 17 17 17 17 18 18 18 19 19 19 19 20 20 21 21 21 21 22 22 22 22 22 22 22
11 14 13 14 13 13 13 12 11 10 8 8 7 5 3 3 2 2 2 3 4 5 6 7 8 9 9 10 10 10 10 9 10 11 11 12 12 13 14 14 13 13 13 13 13 13 13 14 14 14 14 14 14 14 14 14 15 15 16 16 17 17 17 17 18 18 18 18 19 19 19 20 20 20 21 21 21 21 22 22 22 22 22 22 22 22
14 14 13 14 13 12 11 10 10 8 7 6 4 3 2 1 0 1 2 3 5 6 7 8 9 10 10 10 10 10 10 10 10 11 11 12 13 14 15 14 13 12 12 12 12 12 13 13 14 14 14 14 13 14 14 14 14 15 15 16 17 17 17 18 18 18 18 19 19 19 20 20 20 20 21 21 21 21 22 22 22 22 22 22 22 22
14 14 13 12 12 11 10 8 8 8 6 5 4 4 4 4 3 3 3 3 4 5 6 8 9 11 11 11 10 10 9 9 9 10 11 12 14 14 14 13 12 11 11 11 11 11 12 12 13 13 13 13 13 13 13 13 14 14 15 16 16 17 17 18 18 19 19 19 19 20 20 20 20 21 21 21 21 21 21 21 21 21 21 21 21 21
12 13 12 11 11 10 9 8 7 6 5 4 4 4 5 5 5 4 4 3 3 4 5 7 9 10 12 12 10 9 9 9 9 10 11 12 14 14 14 12 11 10 10 10 10 11 11 12 12 12 12 12 12 12 12 13 13 14 15 16 16 17 17 18 18 19 19 19 20 20 20 20 20 21 21 21 21 21 21 21 21 20 20 20 20 20
11 11 11 10 10 10 9 8 6 5 4 4 3 3 4 5 5 5 5 4 4 4 5 7 8 9 10 10 9 9 9 9 10 11 13 14 15 15 14 13 11 10 9 9 10 11 12 12 12 12 12 12 12 12 12 13 13 14 15 15 16 16 17 18 19 19 20 20 20 20 20 20 20 20 20 20 20 20 20 20 19 19 19 19 19 19
11 11 10 10 11 11 10 8 6 5 4 4 4 4 4 5 5 5 4 4 4 5 6 7 8 8 8 7 7 8 9 10 11 12 14 15 16 16 15 14 12 10 9 9 10 12 13 13 13 13 13 13 12 12 12 13 13 14 14 15 15 16 17 18 19 19 20 20 20 20 20 20 20 20 19 19 19 19 19 18 18 18 18 18 18 18
10 10 10 9 9 10 10 9 8 6 6 5 6 6 5 5 5 4 3 3 3 4 5 7 8 8 7 6 6 7 8 10 11 13 15 16 16 15 14 13 12 11 10 10 11 12 13 13 13 13 13 13 13 13 13 13 14 14 14 14 15 16 17 18 19 19 19 19 19 19 19 19 19 19 18 18 18 18 18 18 18 18 18 18 18 17
11 10 9 7 7 8 9 9 8 8 7 7 7 7 6 6 5 4 3 3 3 4 5 6 7 6 4 3 4 5 7 10 12 14 15 16 15 14 13 13 12 12 11 11 12 13 13 14 14 13 13 13 13 14 14 14 14 14 13 14 15 16 17 18 19 19 19 19 19 19 19 18 18 18 18 18 17 17 17 17 17 17 17 17 17 16
12 11 8 7 8 8 9 9 10 10 10 9 9 8 8 7 6 5 4 4 4 4 4 5 6 4 3 2 2 4 7 10 13 15 16 16 14 12 11 12 12 12 12 12 12 13 14 14 14 14 14 14 14 14 14 14 14 13 13 13 15 16 17 18 18 19 19 19 19 18 18 18 17 17 17 17 17 17 17 17 17 17 17 16 16 15
12 11 10 9 9 10 11 11 11 11 11 10 10 9 8 7 6 5 5 4 3 2 2 3 3 2 2 2 3 5 8 11 13 15 16 16 14 11 10 11 12 12 12 12 13 14 14 14 14 15 15 15 15 15 15 14 13 12 12 13 15 16 17 18 19 19 18 18 18 18 18 17 17 17 17 17 17 17 17 17 17 17 16 16 15 15
12 12 11 11 11 12 13 12 12 11 11 11 10 9 8 7 6 5 4 3 2 1 0 1 1 1 2 3 4 7 10 12 13 15 15 15 13 11 10 11 11 12 12 13 13 14 14 14 15 16 17 16 16 15 15 13 12 11 12 13 15 16 16 18 18 18 18 18 18 17 17 16 16 16 16 16 16 16 17 16 16 16 16 16 15 16
13 13 13 13 13 14 14 13 12 12 12 11 11 10 9 8 6 5 4 2 1 1 1 1 1 2 3 5 6 8 10 11 12 14 14 13 12 11 11 11 11 12 13 13 13 13 13 14 16 18 18 17 16 15 14 12 11 11 12 13 15 15 16 17 17 17 17 17 17 16 16 16 16 16 16 16 16 16 16 16 15 15 16 16 16 16
15 15 16 16 16 16 14 13 12 12 11 10 10 9 9 8 6 5 3 2 1 1 1 1 2 3 5 8 9 8 8 9 11 12 11 11 10 11 11 12 12 13 14 14 13 13 14 15 17 18 18 16 15 13 12 11 11 11 12 14 15 15 15 16 16 16 16 16 16 16 15 15 15 15 16 16 15 15 15 15 15 16 16 16 16 15
16 16 16 16 16 16 15 14 12 11 10 9 9 9 9 8 7 5 4 3 2 1 1 2 3 5 7 9 8 6 5 7 9 9 7 7 8 10 11 13 14 15 15 14 14 14 15 16 17 17 16 15 13 12 11 10 11 12 13 14 15 15 15 15 15 16 16 16 16 15 15 15 15 15 16 15 15 15 15 15 15 16 16 16 16 16
18 17 15 13 12 13 14 13 12 11 10 10 10 10 10 9 8 7 5 3 2 1 2 3 4 4 4 5 4 4 4 5 7 7 5 4 5 9 12 15 16 16 15 15 15 15 16 17 16 15 14 13 12 11 10 11 12 13 14 15 15 15 15 15 15 15 15 15 15 15 15 15 15 15 15 15 15 15 15 15 16 16 16 17 16 16
16 16 14 12 11 11 12 13 13 12 11 10 10 9 8 7 7 6 4 2 1 1 2 3 4 3 3 4 4 4 4 5 6 7 5 3 4 9 14 16 17 16 15 15 16 17 16 16 15 14 12 11 10 10 11 12 13 14 15 15 15 14 14 14 15 15 15 15 15 15 15 15 15 15 15 15 15 15 15 16 16 17 16 16 16 16
13 14 13 12 12 12 12 13 13 13 12 11 10 8 7 6 5 4 3 3 2 3 4 4 4 4 5 5 5 4 4 5 5 6 4 3 5 10 15 17 16 15 15 16 17 17 15 15 14 12 10 9 9 11 12 14 15 15 15 14 14 14 14 15 15 15 15 15 15 15 15 15 15 15 15 15 15 15 16 16 16 17 16 16 15 15
13 14 14 13 13 13 13 13 13 12 12 10 9 8 7 5 4 4 3 3 3 4 5 5 5 5 4 4 4 3 3 4 4 4 4 3 6 11 15 16 15 14 15 17 17 16 14 13 12 10 8 8 9 11 14 15 15 15 14 14 14 14 15 15 15 15 15 15 15 15 15 15 15 15 16 15 16 16 16 16 16 16 16 15 14 14
15 15 15 15 15 14 14 13 13 12 10 9 8 7 6 5 4 4 4 3 4 4 4 4 3 3 3 3 3 2 1 3 4 4 5 5 8 11 14 14 14 14 16 18 17 15 12 12 10 9 9 10 11 13 14 15 15 14 14 15 15 15 15 15 15 15 15 15 15 15 15 15 15 15 16 16 16 16 16 16 16 15 15 14 13 13
17 17 17 16 16 15 14 13 12 10 9 8 7 6 5 4 4 5 5 4 3 3 3 2 1 2 2 3 3 2 1 2 3 5 7 8 9 10 12 13 13 14 16 17 16 13 10 10 9 9 11 13 14 13 13 14 14 14 15 15 15 15 15 15 16 16 16 15 15 15 15 15 15 15 16 16 16 16 17 16 15 15 15 14 13 13
19 18 18 17 16 15 14 12 10 9 8 7 6 5 4 3 4 5 5 3 2 2 2 2 1 1 2 3 3 3 2 2 4 6 8 10 9 8 11 12 13 14 15 15 14 11 8 8 8 10 13 14 14 14 14 14 14 14 15 15 15 15 15 15 16 16 16 16 16 16 16 16 16 16 16 16 16 17 17 17 16 15 15 15 14 13
21 20 19 17 16 15 14 12 10 8 7 6 6 5 5 4 4 4 3 3 2 2 3 3 2 1 2 3 3 2 4 5 6 7 9 9 8 7 10 11 13 14 14 13 12 9 6 7 8 11 14 15 14 14 14 14 15 15 15 16 15 15 15 15 15 15 15 15 16 16 16 16 16 16 16 16 16 17 17 16 16 16 16 15 15 14
22 20 19 17 15 14 12 11 9 8 7 6 6 6 5 5 4 4 4 3 3 2 3 3 3 1 1 3 2 3 5 7 7 8 10 9 7 8 10 11 12 13 13 12 8 5 5 6 9 12 15 16 15 15 15 15 15 16 16 16 16 15 15 15 15 15 15 15 16 16 16 16 16 17 16 16 17 17 17 16 15 15 16 16 15 15
21 19 17 15 13 11 10 9 8 7 6 6 6 6 5 5 4 4 4 3 3 2 2 3 2 1 0 2 2 2 3 6 7 9 10 10 8 7 10 10 11 12 12 10 6 2 3 6 9 13 16 16 16 15 15 16 16 16 16 17 16 15 14 15 15 15 15 15 15 16 16 16 16 17 17 17 17 17 16 16 15 15 15 15 15 15
19 17 15 13 11 10 8 7 7 6 6 6 6 6 5 5 4 4 4 3 3 2 1 1 2 2 1 2 2 2 4 5 6 9 10 9 7 7 8 9 10 10 10 9 7 4 2 4 9 14 16 16 15 15 15 16 16 17 17 17 17 16 15 15 15 15 15 15 15 15 16 16 16 16 17 17 17 16 16 15 14 14 14 14 14 14
18 16 14 12 10 9 8 7 7 6 6 6 6 5 5 5 4 4 4 3 3 3 1 0 2 3 3 2 2 3 3 3 5 8 10 9 6 6 7 8 9 9 9 9 8 6 4 5 8 12 15 15 15 14 15 16 17 17 17 17 16 16 16 15 15 15 16 16 16 16 15 16 16 16 16 16 16 16 16 15 15 14 14 13 13 13
16 15 13 11 10 9 8 7 7 6 6 6 6 5 5 5 4 4 4 3 3 2 2 1 0 1 2 3 3 2 2 2 5 8 10 9 6 5 7 7 8 8 8 8 8 7 6 8 9 11 12 14 14 14 15 16 17 17 16 16 16 16 16 16 16 16 17 17 17 17 16 16 16 16 16 16 16 16 16 16 15 15 14 13 13 13
16 14 12 11 10 9 8 7 7 7 7 6 6 5 5 4 4 4 3 3 2 2 2 2 2 1 0 1 2 2 1 2 5 7 8 8 7 7 7 7 7 7 7 8 8 8 7 8 9 10 10 12 13 14 15 17 17 17 16 15 15 15 15 16 16 16 17 17 17 17 16 16 16 16 16 16 16 16 16 15 15 15 15 14 14 14
16 14 12 11 10 9 8 8 7 7 7 6 6 5 5 4 4 3 3 3 3 3 3 3 4 4 4 4 2 1 1 2 4 6 8 8 9 9 7 6 6 6 7 7 8 8 8 9 9 10 10 10 11 13 15 17 18 18 17 16 15 15 15 15 15 16 17 17 17 16 16 16 16 17 16 15 15 15 15 15 15 15 15 14 14 14
15 14 12 10 9 8 8 7 7 7 7 6 5 5 4 4 3 3 3 4 4 5 5 6 7 7 8 9 9 8 7 7 7 8 9 10 11 10 9 8 7 6 6 6 7 8 8 8 10 11 10 9 9 11 14 17 19 19 18 17 16 15 15 15 15 16 16 17 16 16 15 16 16 17 16 16 15 16 16 15 15 15 15 14 13 13
15 13 11 10 9 8 7 7 7 6 6 5 5 5 4 4 4 4 4 5 6 7 8 8 9 10 11 11 11 11 10 10 9 9 10 11 10 10 10 9 8 7 6 5 6 7 8 7 7 7 9 10 11 12 15 16 17 18 18 17 16 16 16 15 15 16 17 17 16 15 15 16 17 17 17 16 16 17 17 16 15 15 16 15 13 11
15 13 11 10 8 8 7 7 7 6 6 6 5 4 4 4 4 5 6 7 7 8 9 10 10 10 10 10 10 10 9 9 9 9 10 10 9 9 9 9 8 8 7 7 6 7 7 7 6 6 7 9 12 14 16 16 16 17 17 17 17 17 17 16 16 16 17 17 17 16 15 16 17 17 17 17 17 17 17 16 15 15 16 16 14 12
15 13 11 10 8 8 7 7 7 7 7 6 5 5 5 5 6 6 7 8 9 10 11 11 10 10 9 9 8 8 8 9 9 9 9 9 8 8 8 8 8 8 8 8 8 8 7 7 8 8 8 9 11 13 15 15 16 16 15 15 15 16 17 17 16 17 17 18 17 16 15 16 16 17 16 16 16 16 15 15 14 14 15 15 15 14
15 13 11 10 9 9 8 8 8 8 7 7 6 6 7 7 7 8 9 9 9 9 10 10 10 9 8 7 7 7 8 8 8 9 8 8 8 7 7 8 8 9 9 9 9 9 8 8 9 10 10 11 12 13 14 16 16 16 14 13 14 15 16 16 17 17 18 18 17 16 15 16 16 16 16 15 14 14 14 14 13 12 13 14 13 13
14 13 12 11 10 10 10 9 9 8 8 7 8 8 8 8 8 9 9 9 8 8 9 9 9 9 7 6 6 6 7 8 8 8 8 7 7 7 7 8 9 9 9 9 10 10 9 9 9 10 11 11 11 12 14 16 17 16 15 14 14 15 15 15 17 18 18 17 16 16 15 16 16 16 15 14 13 13 13 13 12 11 12 12 12 11
14 13 12 12 11 11 10 10 9 9 8 9 9 9 8 8 8 9 9 9 9 9 10 10 10 9 8 8 7 6 7 7 8 8 8 7 7 7 8 8 9 10 10 10 10 11 11 10 10 11 11 11 11 12 13 16 17 18 17 15 14 13 12 15 17 18 17 17 16 16 16 16 15 14 14 13 13 12 12 12 12 11 11 11 11 10
14 14 13 12 12 11 11 10 10 10 10 10 10 9 8 8 8 9 9 10 10 11 10 10 9 9 9 10 9 8 7 7 8 8 8 7 7 8 8 9 9 10 10 10 10 11 12 12 12 12 12 11 11 12 13 15 17 17 16 15 14 13 12 14 16 17 17 16 16 15 15 15 14 14 13 13 13 12 12 13 13 12 12 12 11 10
15 15 14 13 13 12 12 11 11 11 11 10 10 9 8 8 8 9 10 11 11 11 10 9 8 8 9 9 9 8 8 7 7 7 7 6 7 7 8 8 9 10 11 11 11 12 13 14 14 14 13 12 12 13 13 14 15 16 15 14 14 14 14 15 15 15 15 15 15 15 15 14 14 14 14 14 14 13 12 12 13 13 13 12 11 10
16 15 14 14 13 12 12 11 11 11 10 10 9 8 8 8 9 9 10 11 11 10 9 9 8 8 8 8 8 8 7 7 7 7 6 6 5 6 7 8 8 9 10 12 12 13 14 14 15 15 14 13 13 13 13 13 13 14 15 14 14 15 15 15 15 14 14 14 14 14 14 14 13 14 14 14 14 14 12 12 12 13 13 13 12 10
16 16 15 14 13 13 12 11 11 10 9 8 8 7 8 9 9 10 11 11 11 10 9 9 9 9 9 8 7 7 7 6 6 6 7 6 6 6 7 7 7 8 9 10 12 13 14 14 14 14 14 13 13 13 12 12 12 13 14 14 14 14 14 14 14 13 13 13 14 14 14 13 13 14 14 14 14 14 13 12 12 13 13 13 12 11
17 16 15 14 14 13 12 11 10 9 9 8 7 7 8 9 11 11 12 11 10 9 9 9 9 9 9 8 7 7 6 6 6 6 6 7 7 8 8 8 8 8 8 8 9 10 10 11 11 11 11 11 11 12 12 12 12 12 12 13 13 13 13 13 13 13 13 13 13 13 12 12 12 12 13 13 14 13 13 12 12 12 13 12 12 11
16 16 15 14 14 13 12 11 10 9 9 8 8 8 9 9 10 11 10 10 9 9 9 9 9 9 9 8 7 6 6 5 6 6 6 7 7 8 9 9 10 10 9 9 9 9 8 7 5 5 5 6 8 9 10 11 12 12 12 12 12 12 12 12 12 13 13 13 12 12 11 11 11 11 11 12 12 12 12 12 12 12 12 11 11 10
15 15 14 14 14 13 12 11 10 9 9 9 9 9 9 9 9 9 9 8 8 8 8 8 8 8 8 8 7 6 5 5 6 6 6 7 7 8 9 9 10 10 11 11 12 13 13 12 9 7 5 4 5 7 10 12 13 13 13 12 11 11 11 11 12 12 13 12 12 11 10 10 10 10 10 11 11 11 11 12 12 12 11 11 11 10
15 14 14 14 13 13 12 11 10 10 10 10 10 10 10 9 8 7 7 7 8 8 8 8 8 8 8 7 6 5 5 5 6 6 6 6 7 8 8 9 9 10 10 11 12 13 14 13 11 10 9 7 6 7 9 11 13 13 13 12 12 11 10 11 11 12 12 12 11 10 10 9 9 10 10 10 10 10 10 12 12 11 10 10 11 11
Wind_Direction
166 170 176 182 182 180 180 187 193 199 208 217 224 230 236 240 243 245 247 250 256 263 270 277 284 291 297 301 301 300 299 300 301 302 304 307 311 315 317 318 317 313 309 307 307 307 308 309 310 310 310 310 310 309 309 309 310 310 311 312 313 314 315 316 317 317 317 317 317 316 316 316 315 315 315 315 315 315 314 314 313 312 311 310 310 309
174 176 178 183 186 185 186 192 199 204 212 221 228 234 239 242 245 248 251 256 262 269 276 283 292 300 304 303 301 301 302 302 301 300 303 308 313 318 321 321 320 317 312 310 310 310 310 310 311 311 310 310 310 310 310 311 312 313 314 314 315 316 317 318 318 318 318 317 317 317 317 317 316 316 316 316 316 316 315 314 313 312 311 311 310 310
179 179 182 186 190 191 193 199 204 209 214 222 230 237 242 245 249 254 260 266 273 280 286 294 300 303 303 303 305 307 307 306 303 303 306 312 318 323 326 326 324 320 316 313 311 311 311 311 311 311 311 311 312 312 313 313 314 315 316 317 318 319 319 319 318 318 318 318 318 318 318 318 318 317 317 317 317 316 315 314 313 313 312 312 311 311
183 184 187 191 193 196 201 206 210 213 215 221 229 237 243 247 254 262 272 280 285 289 294 297 298 299 300 304 308 310 309 307 306 306 310 316 322 327 329 327 324 320 315 313 311 311 311 312 313 313 314 315 315 316 316 316 317 318 320 320 321 321 320 320 319 319 320 320 320 320 319 319 318 318 318 318 317 317 315 314 314 314 313 312 312 313
185 189 192 192 190 193 202 210 215 218 219 223 228 235 243 251 259 268 277 283 286 290 294 295 296 298 303 309 312 313 312 311 310 309 312 318 324 327 327 325 321 316 313 311 310 311 312 314 315 316 317 318 319 319 320 320 321 322 323 323 323 323 322 322 322 323 323 322 322 321 321 320 319 319 319 319 318 317 316 315 314 314 313 313 313 314
177 187 191 189 186 188 197 208 216 219 221 224 229 235 244 254 263 272 279 286 292 297 298 299 302 308 313 317 318 318 318 316 311 308 310 317 322 325 323 319 315 311 310 310 311 313 315 317 318 320 321 322 323 323 323 324 325 325 325 325 326 326 326 327 327 326 325 324 323 322 321 321 320 320 320 319 318 316 316 315 315 314 314 314 314 315
171 182 188 188 189 193 197 206 215 220 220 225 232 240 247 256 265 276 294 311 317 315 310 308 311 315 319 321 323 323 322 314 306 302 306 313 318 320 319 316 314 312 312 313 315 317 319 321 322 322 323 324 324 325 325 326 327 327 328 328 328 329 330 330 329 328 327 326 325 324 323 322 322 322 320 319 318 317 317 316 316 316 315 315 316 316
168 179 187 187 189 193 199 207 217 225 227 230 233 238 250 267 287 315 340 336 330 324 319 314 313 316 321 324 325 324 319 308 300 298 303 311 318 321 322 322 321 320 319 319 320 321 322 323 323 324 324 325 325 325 326 326 327 329 329 330 331 331 331 331 330 329 329 327 326 326 325 324 323 321 320 320 320 319 319 319 318 318 318 317 317 317
169 176 186 191 191 189 194 207 220 228 232 232 217 181 133 132 263 297 307 313 317 318 318 315 315 317 321 324 324 319 312 303 297 297 304 314 322 327 329 329 327 325 324 322 321 321 322 323 324 325 325 325 324 325 325 327 328 329 330 332 332 332 332 332 332 331 330 329 328 328 327 326 324 323 322 322 322 321 321 322 321 320 320 320 319 318
177 177 180 190 195 194 188 196 212 223 222 218 206 187 170 170 185 214 242 266 286 302 306 308 310 312 315 319 319 314 307 300 299 303 311 319 326 330 332 331 329 326 325 323 322 321 322 325 326 327 326 325 325 325 325 327 328 330 332 332 333 334 334 334 334 333 332 331 330 329 329 328 327 326 325 324 323 323 322 323 323 322 322 321 320 320
174 177 173 172 181 190 189 187 194 203 201 199 200 201 196 197 204 214 225 237 251 265 280 290 297 303 307 312 315 313 307 303 304 310 317 323 330 335 337 336 333 328 324 322 320 322 327 331 331 329 327 326 326 325 326 327 328 330 332 334 335 336 336 337 336 335 333 332 331 330 329 329 328 327 326 325 324 323 323 323 323 323 323 323 322 322
166 171 168 162 162 166 172 181 187 186 177 179 180 184 198 209 219 226 233 242 252 263 271 279 290 301 309 313 315 315 312 310 310 314 320 328 337 343 344 342 339 335 330 327 329 333 337 338 336 332 329 326 325 325 325 326 328 330 333 335 337 338 339 339 338 336 334 333 332 331 330 329 328 328 327 326 325 324 324 325 325 325 325 325 324 325
173 172 164 157 155 156 157 160 162 161 159 158 155 158 173 195 209 221 234 252 269 279 283 288 298 310 323 322 319 315 312 311 312 317 323 333 342 347 346 345 345 344 340 338 339 342 342 340 337 334 331 328 326 325 325 326 328 330 333 336 338 340 341 340 339 337 335 334 333 332 331 331 330 329 329 328 328 328 328 328 328 328 327 327 327 327
166 163 154 147 149 156 159 156 150 146 148 148 153 163 176 189 200 211 231 253 272 280 284 290 303 319 336 331 322 316 312 311 314 320 327 337 345 349 347 346 347 349 347 342 341 342 343 340 336 334 332 329 327 325 325 326 327 330 333 336 339 340 341 340 339 338 337 335 334 334 333 332 332 332 331 331 332 332 332 331 331 330 329 329 329 328
159 153 145 145 150 157 162 160 154 150 150 155 165 176 186 191 200 212 220 225 247 267 280 296 314 332 348 333 321 318 315 317 320 326 331 339 348 354 351 348 349 351 349 342 339 340 342 339 336 334 332 330 329 328 327 327 327 329 332 336 338 340 341 340 340 339 338 337 336 336 336 335 335 335 335 334 335 335 334 334 333 331 331 330 330 329
164 157 150 149 150 155 161 160 155 153 158 166 176 183 185 186 198 214 215 220 238 267 297 325 339 354 30 44 353 326 320 322 324 327 330 338 351 2 356 351 350 350 349 343 339 338 338 337 335 333 330 330 331 331 330 329 329 330 333 335 338 339 340 340 340 340 340 339 339 338 338 338 338 337 338 338 338 338 337 335 334 333 332 331 330 329
162 157 151 144 143 148 154 156 158 162 169 176 184 190 194 196 204 213 215 222 237 267 325 358 5 7 11 42 6 333 323 324 323 324 329 338 353 6 3 357 351 348 347 342 339 338 337 335 333 330 329 331 333 333 332 332 332 332 334 336 337 339 339 339 339 340 341 341 341 341 341 341 340 340 340 340 340 339 337 336 335 334 334 333 332 329
157 153 147 142 141 145 150 155 162 172 180 184 188 195 202 207 209 208 208 214 217 203 51 34 28 333 300 300 322 325 320 320 322 324 328 337 353 8 9 2 355 349 344 341 339 338 336 333 329 328 329 333 335 336 335 335 336 336 337 338 339 339 339 339 340 342 343 343 343 343 343 343 342 342 342 341 340 339 338 337 336 336 335 335 332 329
154 154 149 145 145 148 153 160 170 179 184 188 190 192 192 195 196 194 191 182 154 105 50 357 306 282 277 275 295 312 317 318 321 324 326 332 350 9 10 4 355 347 343 341 341 339 335 330 327 328 332 336 338 339 340 340 341 341 341 340 341 341 341 341 343 345 345 345 345 345 345 345 344 343 343 342 341 340 339 339 338 338 336 334 332 331
152 154 154 153 151 151 157 169 181 188 190 191 191 188 181 181 180 177 169 159 146 106 358 322 297 286 287 289 299 311 320 322 323 324 324 327 347 7 8 0 351 345 343 344 345 342 335 330 330 334 339 343 344 343 345 346 347 347 345 344 344 345 346 348 349 348 347 347 347 348 348 347 346 345 344 344 343 342 342 341 341 339 338 338 339 341
152 154 162 166 162 157 162 174 183 189 189 187 184 180 176 174 171 168 166 168 175 207 306 303 297 299 305 305 312 324 327 329 328 326 322 325 345 2 5 356 349 346 345 348 348 343 336 334 338 344 349 349 347 347 350 353 353 352 349 349 349 350 350 351 351 349 348 348 349 350 350 348 347 347 346 346 345 345 345 344 343 342 342 345 348 350
156 156 164 172 172 169 168 172 177 180 180 181 180 177 173 172 171 172 175 179 191 235 297 306 315 324 328 329 339 345 331 329 331 328 316 309 336 354 359 352 349 349 348 348 346 343 340 342 348 356 360 356 352 353 357 358 356 353 352 352 353 353 352 352 352 351 350 350 351 351 351 350 349 348 348 348 348 348 347 346 345 346 347 352 354 353
165 162 164 167 171 170 167 166 167 170 173 174 172 170 167 164 164 166 166 160 142 35 10 5 11 17 16 1 353 342 327 323 331 333 317 291 323 347 351 351 352 352 348 346 343 341 344 351 359 5 8 6 4 2 2 0 357 355 355 355 355 355 354 354 353 352 351 351 352 352 352 351 351 351 351 351 351 350 349 348 349 350 351 354 354 352
163 161 159 160 161 161 160 159 161 163 163 162 158 151 143 138 134 130 120 103 76 47 33 29 28 27 22 7 351 333 317 315 326 335 329 302 322 340 348 353 354 352 346 342 340 342 349 360 8 12 16 17 14 9 5 2 360 358 358 358 357 356 355 355 354 353 352 352 352 353 353 353 352 353 353 354 353 352 351 350 352 353 354 354 353 353
151 151 151 152 153 153 152 152 153 154 155 153 150 146 141 134 126 115 104 87 65 48 37 32 23 17 18 5 349 329 312 310 316 326 338 324 327 338 348 355 357 351 342 338 340 347 356 5 13 18 20 17 11 7 5 3 2 1 0 359 358 357 356 356 356 355 354 353 354 354 354 354 354 355 355 356 355 354 353 353 354 356 357 356 355 354
142 142 143 144 144 145 145 145 146 148 149 149 147 142 136 128 121 117 109 89 63 47 40 34 16 358 6 0 358 350 323 306 306 323 344 344 339 342 351 357 356 349 340 337 342 351 360 8 15 15 7 360 358 0 5 4 3 2 1 360 359 357 357 357 357 357 356 356 356 356 356 356 357 357 357 357 356 355 354 355 358 0 0 360 359 359
134 134 135 137 138 138 139 140 142 145 147 147 144 137 126 118 118 119 111 88 60 50 58 62 1 318 333 341 352 2 8 326 323 333 342 349 351 353 355 355 352 347 341 339 344 354 2 10 10 2 354 351 355 3 10 8 5 3 1 360 359 358 358 358 358 358 358 358 358 358 358 358 358 358 359 358 358 357 356 357 0 4 4 3 3 4
126 127 129 130 132 134 135 136 138 142 145 144 137 126 113 104 108 116 116 91 63 70 97 129 185 277 307 323 342 4 39 27 4 348 342 349 358 3 356 351 349 348 347 342 345 357 13 16 7 356 351 353 2 13 17 11 5 2 1 0 360 359 359 359 359 359 359 359 360 360 360 359 359 359 360 359 359 359 359 359 2 5 6 5 5 6
128 130 131 131 133 136 138 139 139 139 139 133 121 109 99 86 89 99 98 74 71 106 133 151 174 228 289 310 333 25 56 41 15 351 346 352 2 3 351 349 351 354 354 347 345 355 16 18 7 358 355 0 10 18 17 11 5 1 1 2 1 1 1 1 1 0 0 0 1 1 1 0 360 360 0 0 0 1 1 2 3 6 8 7 7 8
137 138 138 139 140 143 144 144 140 134 125 113 102 95 88 81 76 73 72 65 72 110 145 162 175 210 293 329 6 54 60 40 16 353 350 358 5 0 349 351 357 1 2 357 351 345 348 356 359 358 357 3 9 13 12 8 4 2 3 6 6 4 3 2 1 1 1 1 1 2 1 1 0 0 1 1 2 2 3 4 5 8 10 10 11 12
141 141 140 141 142 144 143 140 133 122 110 99 92 87 84 80 76 73 70 65 64 80 126 160 174 183 344 40 51 70 66 32 9 352 351 357 1 357 352 358 3 7 12 9 5 343 321 331 343 351 356 360 4 7 8 5 3 4 7 9 9 7 4 2 2 1 1 2 2 2 1 1 1 1 1 1 2 4 5 6 7 8 10 13 15 17
141 141 139 139 139 139 136 129 120 110 101 94 89 86 84 83 82 80 76 70 63 62 86 154 175 178 161 93 88 94 74 29 356 343 346 353 357 358 360 8 11 13 18 17 14 5 333 322 331 339 347 353 358 3 5 4 4 7 9 9 9 9 6 3 3 2 2 2 2 2 2 1 1 1 1 1 3 5 7 8 9 9 10 12 14 17
140 139 138 138 136 134 128 120 113 105 99 93 90 89 89 87 85 80 75 70 63 57 54 143 190 185 179 162 129 94 66 19 339 332 339 348 358 9 16 21 18 14 15 15 15 9 350 330 327 331 338 346 353 359 2 3 6 9 10 9 8 8 7 5 4 3 2 2 3 3 2 2 2 1 1 2 4 6 7 9 10 10 10 9 10 13
138 138 137 136 134 128 122 115 109 104 100 97 95 94 91 85 78 72 67 62 58 55 52 35 286 210 196 182 162 129 73 346 323 328 338 350 7 30 37 33 23 13 9 8 8 3 351 339 333 333 336 343 351 357 1 3 6 9 10 9 8 6 5 3 2 2 2 3 3 4 3 3 3 3 3 3 5 6 8 9 11 12 11 9 8 9
135 135 135 133 129 124 118 113 108 104 102 101 99 96 91 83 75 69 62 57 54 54 56 53 48 39 21 199 190 184 198 313 327 339 353 9 33 54 53 41 27 15 6 3 1 357 349 344 342 341 340 342 348 355 0 2 4 8 10 10 9 5 3 1 0 0 1 3 4 4 4 4 4 4 4 4 5 7 9 10 11 12 12 11 10 11
131 129 128 126 123 119 116 112 108 104 102 103 101 97 92 86 81 76 70 65 63 62 64 67 71 72 72 74 86 112 101 37 20 20 27 36 50 60 60 49 34 20 5 359 357 355 348 345 346 349 350 347 345 348 353 359 3 6 8 10 9 6 4 2 1 1 2 3 4 4 4 4 5 5 5 5 6 8 11 12 13 14 14 14 13 14
126 124 124 122 121 120 119 116 111 106 103 103 103 100 95 92 89 87 84 80 75 72 72 76 81 84 83 81 80 80 78 72 61 52 46 46 50 54 55 50 40 26 9 354 349 349 348 346 348 352 354 352 345 341 343 349 355 359 3 5 5 4 4 3 3 2 3 3 4 4 3 4 5 6 5 5 7 10 12 13 14 14 16 18 19 18
124 124 124 124 125 127 126 124 119 112 109 108 107 105 102 102 99 97 94 89 83 79 79 82 85 88 88 86 81 77 71 64 57 49 44 43 44 46 45 43 38 31 22 5 351 345 345 345 348 349 349 346 341 337 337 341 346 350 354 358 1 3 3 4 3 2 2 2 3 4 4 5 6 7 6 7 9 12 14 15 14 13 14 19 25 28
126 127 129 132 135 136 135 132 125 120 117 116 115 113 112 110 108 104 99 92 85 81 81 83 85 88 88 85 78 69 59 51 44 38 36 35 36 36 35 33 30 25 20 12 2 353 347 343 339 335 334 333 333 334 336 339 342 343 346 351 355 359 2 3 2 1 360 0 2 3 4 6 7 7 7 8 10 11 12 14 14 12 11 15 23 31
131 133 136 141 142 140 136 132 129 126 124 122 119 115 110 107 104 101 97 89 82 78 78 80 82 83 83 77 68 57 46 38 33 29 27 26 25 24 23 21 18 14 11 7 3 356 347 336 326 322 320 319 321 325 329 333 337 340 342 345 346 349 355 358 359 358 358 359 1 2 3 6 7 8 8 10 11 12 12 12 12 11 11 13 17 22
136 139 143 147 145 141 139 136 132 130 127 123 115 104 95 94 95 95 91 83 75 71 71 72 71 69 66 61 54 44 36 30 26 22 19 17 14 12 10 8 5 2 360 358 355 351 343 329 319 314 312 311 314 318 321 326 332 337 338 336 334 337 346 353 356 356 356 358 1 3 4 7 8 10 10 11 13 14 14 13 12 11 12 14 18 19
141 145 147 147 145 142 139 136 134 132 128 117 100 88 83 86 92 95 93 87 81 77 76 72 66 60 54 45 38 33 28 24 20 16 11 8 4 1 359 357 355 353 348 344 342 339 335 325 314 308 307 308 310 312 316 323 331 336 334 331 330 335 344 351 355 356 354 356 0 4 6 8 11 12 13 13 14 16 17 17 15 13 13 15 19 22
143 145 146 146 144 141 138 136 134 129 119 102 88 81 81 86 92 94 94 91 90 89 87 80 72 64 59 57 53 42 31 24 18 11 3 357 353 351 350 349 348 345 340 333 328 327 327 320 311 306 308 309 306 303 307 316 325 331 334 335 335 336 337 343 348 351 353 356 360 4 7 10 13 16 17 17 17 18 19 19 18 16 16 17 20 23
143 145 146 144 142 139 136 133 127 118 107 94 85 80 80 86 91 93 92 92 92 91 86 79 72 68 67 64 59 52 43 31 20 12 4 353 346 344 340 340 339 336 331 321 313 311 312 310 308 308 311 309 304 300 303 310 317 325 333 337 338 336 333 336 341 346 351 356 0 4 7 11 15 18 20 20 19 19 20 21 21 19 18 20 22 25
146 146 145 142 139 136 131 126 119 110 101 93 85 79 78 84 90 92 92 92 91 87 81 75 73 72 70 64 58 54 50 44 35 26 18 6 355 346 337 333 330 327 323 315 308 302 297 295 299 305 309 306 301 298 299 305 313 321 328 333 334 333 334 338 343 347 351 356 0 3 7 11 15 18 19 19 18 19 21 23 22 21 20 22 24 26
147 145 142 139 135 130 126 121 115 107 100 93 85 79 79 85 91 95 94 92 88 82 77 75 77 78 76 69 61 55 51 48 45 42 36 29 17 3 352 343 335 327 319 312 306 300 295 291 293 296 298 297 298 299 302 307 311 315 321 327 330 331 335 341 347 352 355 357 360 2 5 11 16 18 17 16 17 19 24 26 25 22 21 22 25 27
146 142 138 135 131 127 124 119 113 107 103 98 90 83 82 88 93 95 94 90 85 81 79 80 81 81 79 74 66 59 53 46 42 40 38 33 28 23 13 4 351 337 325 314 306 301 299 298 296 292 287 285 288 297 308 316 316 314 316 322 326 329 333 339 347 353 357 358 360 2 5 10 14 16 16 16 17 19 25 28 28 25 23 23 24 25
144 140 136 133 129 125 122 118 114 112 112 109 101 90 86 89 92 92 90 86 83 83 85 85 83 80 78 73 68 63 57 49 44 38 34 28 26 25 22 15 8 359 348 336 325 317 312 308 303 297 287 278 278 288 304 316 319 318 318 321 324 327 331 338 346 353 357 360 2 4 7 9 11 12 14 15 16 18 23 28 28 26 24 23 23 23
141 138 135 132 129 125 122 120 120 121 122 120 111 98 90 89 89 88 86 84 83 83 84 84 82 80 76 72 68 62 58 50 41 35 30 25 21 18 16 13 11 8 7 6 6 4 3 357 345 329 312 291 286 294 308 315 319 320 320 321 323 328 332 339 345 351 356 1 5 9 10 12 14 15 16 17 16 16 19 25 26 25 23 23 23 23
140 137 135 133 131 128 127 128 129 130 129 124 115 104 95 90 88 86 85 85 84 85 86 85 83 80 76 72 68 62 53 45 35 29 26 22 13 7 7 9 10 10 11 16 21 26 31 37 40 38 25 354 326 314 311 313 317 318 317 319 323 329 334 338 344 350 357 3 8 12 13 15 18 20 21 21 19 18 17 20 22 23 22 23 24 25
140 139 138 136 134 133 132 133 133 131 127 121 114 106 100 96 93 91 90 89 89 89 88 86 83 79 77 73 66 54 41 35 28 22 20 17 10 6 7 10 11 11 10 13 17 22 27 32 36 36 30 15 349 327 316 314 313 313 313 316 322 328 333 338 344 351 359 6 11 13 13 16 20 23 23 23 22 19 14 13 14 17 20 21 22 23